Temp
6 6 6 5 6 7 9 10 11 12 11 11 10 9 8 10 10 9 8 8 5 3 7 8 9 9 8 8 7 7 6 6 7 6 6 6 6 6 6 6 5 5 5 5 5 5 4 4 4
6 7 5 6 7 9 10 10 12 11 10 10 10 10 7 6 5 6 7 7 7 7 6 7 8 7 7 7 6 6 6 6 6 6 6 6 5 5 5 5 5 4 5 4 4 4 4 4 4
6 6 5 6 8 9 11 10 10 10 10 9 9 9 7 4 5 7 7 7 6 7 7 7 7 6 6 6 5 5 5 6 6 6 6 5 5 5 5 4 4 4 4 4 4 4 4 4 3
6 5 6 8 9 10 11 10 10 9 9 9 9 9 7 7 7 6 6 7 6 6 6 6 6 6 5 5 5 5 5 5 5 5 5 5 5 5 4 4 4 4 4 4 3 3 3 3 3
5 6 8 9 10 11 10 10 10 9 8 8 8 8 6 6 7 7 6 6 8 6 5 5 6 5 5 4 4 4 5 5 5 5 5 5 4 4 4 4 4 4 3 3 3 3 3 3 2
6 7 9 10 10 10 10 9 9 9 8 8 7 7 6 7 7 6 6 5 6 6 5 5 5 5 5 4 4 4 4 5 5 5 4 4 4 4 3 3 3 3 3 3 3 3 3 3 3
6 8 9 10 10 8 8 7 8 8 6 5 5 5 5 6 6 6 6 6 7 6 4 4 3 4 4 4 3 3 4 4 4 4 3 3 3 3 3 3 3 3 3 3 3 3 3 2 3
7 7 9 10 10 8 8 7 7 7 6 6 5 5 6 6 6 6 5 6 6 5 5 4 4 4 4 3 3 2 3 4 3 3 3 3 3 3 3 3 2 2 2 2 2 2 2 2 2
7 7 9 10 10 9 8 8 7 6 6 6 6 6 6 5 6 6 6 6 6 5 4 3 4 2 2 3 2 1 1 1 2 2 2 2 2 3 3 2 2 2 2 2 2 2 2 2 2
7 8 9 9 9 8 8 8 7 7 7 6 7 6 5 5 5 6 6 6 6 5 5 4 4 4 3 3 2 1 2 2 1 1 2 1 2 2 2 2 2 2 2 2 2 2 2 2 2
8 8 9 9 8 8 8 8 6 6 6 7 5 5 6 6 5 5 6 5 5 4 4 4 3 4 4 3 2 2 0 2 0 1 1 2 2 1 1 1 1 2 1 1 2 1 1 2 1
8 8 8 8 8 7 7 7 6 6 5 5 5 5 6 5 5 4 4 5 4 3 3 3 3 3 3 3 2 1 1 -1 -1 -0 1 1 -0 1 2 1 2 2 1 1 1 2 2 1 1
8 8 8 8 7 7 7 7 6 5 6 6 6 5 5 2 2 2 2 3 4 4 3 3 3 3 2 3 2 1 1 -1 -1 -2 -2 -2 -1 0 2 2 1 1 1 1 1 1 1 1 1
8 7 8 8 8 7 7 6 6 3 6 6 6 5 4 2 2 2 3 3 2 2 3 2 3 3 3 3 2 1 1 -0 -3 -2 -2 -1 -0 1 2 2 1 1 1 1 1 1 1 1 1
7 7 8 8 8 8 6 5 4 4 3 5 5 4 2 1 2 2 3 4 2 2 2 2 2 2 2 2 1 0 0 -1 -2 -2 -2 -1 -1 1 1 1 1 1 0 1 1 1 1 1 1
7 8 8 8 8 7 7 6 6 4 3 4 5 4 4 3 3 3 4 4 2 1 2 2 1 2 1 1 -0 -0 -0 -1 -2 -2 -1 -0 0 1 1 1 0 1 1 1 1 1 1 1 1
8 9 9 9 8 7 6 5 5 5 4 4 5 5 5 5 3 3 4 4 4 3 2 0 -0 -0 0 0 -1 -1 -1 -2 -1 -1 -0 -0 0 0 0 0 0 1 1 1 1 1 1 1 1
9 9 9 9 8 8 6 5 5 4 4 4 4 5 4 4 5 4 4 4 3 2 2 2 2 1 1 -1 -0 -1 -1 -1 -1 -1 0 1 1 1 0 0 1 1 1 1 1 1 1 0 0
9 9 9 9 8 8 8 6 7 5 5 4 5 6 5 5 5 5 4 3 3 3 2 2 2 2 2 1 1 1 1 0 0 1 1 1 1 1 0 1 2 1 1 1 1 1 0 0 -0
9 9 9 10 9 9 9 9 7 6 6 6 7 6 6 6 5 5 5 4 4 3 3 3 3 2 1 1 1 1 1 1 2 1 1 1 1 1 1 1 1 1 1 1 1 1 0 -0 0
8 9 9 9 8 9 9 9 10 7 7 6 5 5 4 3 5 5 5 5 5 4 4 4 3 3 2 2 2 2 2 2 2 1 2 2 2 1 1 1 1 1 1 1 1 1 0 -0 -0
8 9 9 8 9 9 9 10 10 8 8 7 6 5 5 4 4 5 5 5 5 5 4 4 4 3 3 3 3 3 3 3 3 3 2 2 2 1 1 1 1 1 0 0 1 1 -0 -1 -1
8 8 8 8 9 9 10 10 11 9 9 8 7 6 6 5 5 4 5 6 5 5 5 5 4 4 4 3 3 3 3 3 3 2 2 2 2 2 1 1 1 1 1 0 0 -0 -0 -1 -1
8 8 8 8 8 9 9 10 10 9 9 9 8 7 6 6 5 5 4 5 6 6 5 5 4 4 4 4 3 3 3 3 3 2 2 2 2 1 1 1 1 1 0 -0 1 -0 -1 -0 -1
8 8 8 8 8 8 9 10 11 9 9 9 9 8 8 7 6 5 5 5 5 6 6 6 5 5 4 5 4 4 3 3 2 2 1 1 1 2 2 1 1 1 0 0 0 -0 -1 -1 -2
8 8 8 4 3 7 7 10 10 10 9 9 9 9 8 8 7 6 6 5 5 5 6 6 6 5 5 4 4 3 4 4 2 2 1 1 2 1 1 2 1 1 0 -0 -0 -1 -1 -1 -2
8 8 8 5 3 3 5 9 10 10 9 9 9 8 8 8 8 7 6 6 6 5 5 6 6 5 5 5 4 4 3 3 2 3 2 2 2 2 2 2 2 1 -0 0 -0 -1 -1 -2 -2
7 8 8 8 6 6 10 10 10 9 9 9 8 8 8 8 8 8 6 6 6 6 6 5 6 5 5 5 5 5 3 4 3 3 3 2 2 2 2 2 2 1 1 0 -0 -1 -1 -1 -2
7 7 7 7 8 7 7 9 8 6 8 9 9 8 8 7 7 7 7 7 6 5 4 5 5 4 5 5 5 4 4 4 3 3 3 3 3 2 2 2 1 1 0 -0 -1 -2 -2 -1 -2
7 8 7 8 8 7 7 7 9 8 8 8 8 8 7 7 7 6 7 7 7 7 6 5 5 5 5 5 4 4 3 4 3 3 3 3 3 2 2 1 1 1 0 -1 -1 -1 -1 -2 -2
Height
3121 3120 3121 3121 3128 3120 3112 3110 3106 3103 3102 3103 3099 3105 3107 3110 3115 3109 3103 3100 3098 3105 3115 3122 3124 3129 3132 3134 3135 3138 3142 3145 3149 3151 3154 3155 3158 3160 3161 3163 3164 3165 3166 3167 3168 3168 3170 3171 3171
3119 3118 3121 3122 3124 3115 3107 3107 3102 3104 3101 3102 3104 3101 3101 3113 3107 3109 3110 3109 3113 3118 3122 3122 3123 3127 3128 3132 3136 3139 3142 3145 3148 3151 3154 3156 3158 3160 3162 3163 3165 3166 3167 3169 3169 3169 3170 3171 3171
3119 3119 3122 3121 3118 3113 3107 3107 3106 3105 3102 3100 3103 3104 3104 3093 3109 3111 3110 3112 3116 3117 3120 3122 3122 3125 3126 3131 3136 3140 3144 3146 3148 3151 3153 3155 3159 3161 3162 3164 3166 3167 3168 3169 3171 3171 3171 3171 3171
3119 3121 3122 3118 3114 3110 3108 3107 3108 3106 3102 3100 3106 3103 3101 3109 3108 3107 3112 3113 3113 3108 3115 3119 3119 3124 3124 3128 3135 3139 3143 3146 3147 3151 3153 3155 3158 3161 3163 3165 3167 3168 3169 3170 3173 3172 3172 3171 3171
3121 3121 3119 3116 3112 3109 3107 3106 3106 3107 3101 3099 3103 3096 3098 3105 3103 3105 3105 3110 3115 3112 3111 3115 3118 3122 3124 3126 3135 3138 3142 3145 3146 3150 3153 3155 3159 3161 3164 3166 3168 3169 3171 3172 3173 3172 3172 3173 3173
3122 3122 3117 3113 3109 3106 3105 3103 3105 3108 3104 3101 3100 3096 3101 3100 3102 3109 3104 3105 3103 3103 3109 3110 3114 3116 3122 3127 3133 3138 3141 3144 3147 3150 3153 3156 3159 3162 3164 3166 3169 3171 3171 3172 3173 3173 3173 3173 3174
3122 3120 3115 3112 3108 3106 3108 3106 3109 3106 3105 3093 3087 3094 3098 3098 3101 3107 3105 3103 3102 3103 3107 3106 3105 3114 3118 3125 3133 3136 3139 3142 3146 3152 3154 3156 3159 3162 3164 3167 3169 3171 3172 3173 3173 3173 3174 3175 3175
3123 3120 3114 3111 3108 3108 3109 3104 3106 3113 3105 3097 3097 3103 3099 3099 3102 3104 3101 3100 3101 3101 3102 3103 3113 3109 3117 3122 3130 3134 3138 3141 3145 3151 3155 3156 3159 3162 3165 3167 3169 3171 3172 3172 3173 3174 3174 3175 3175
3121 3119 3114 3110 3108 3108 3108 3103 3103 3109 3110 3100 3102 3102 3101 3104 3102 3102 3102 3103 3102 3103 3105 3101 3111 3110 3111 3123 3125 3129 3133 3141 3146 3150 3153 3156 3158 3161 3164 3166 3168 3170 3172 3173 3173 3173 3174 3174 3175
3121 3117 3113 3111 3109 3108 3110 3107 3100 3102 3107 3098 3100 3096 3097 3100 3101 3098 3098 3098 3100 3102 3107 3106 3109 3111 3113 3118 3123 3126 3128 3133 3142 3147 3149 3151 3155 3160 3163 3165 3168 3170 3171 3172 3173 3173 3173 3173 3174
3118 3116 3114 3112 3108 3107 3110 3105 3094 3100 3100 3095 3099 3097 3092 3095 3096 3094 3094 3095 3098 3100 3103 3104 3108 3109 3113 3115 3118 3122 3125 3130 3137 3142 3146 3150 3156 3159 3160 3163 3164 3167 3169 3170 3172 3172 3172 3172 3173
3117 3115 3113 3111 3108 3106 3108 3107 3101 3096 3103 3096 3096 3096 3091 3089 3090 3090 3090 3093 3096 3099 3100 3101 3106 3109 3110 3111 3116 3118 3123 3127 3132 3140 3149 3151 3154 3158 3162 3163 3164 3166 3169 3171 3172 3171 3171 3172 3173
3115 3113 3111 3110 3108 3107 3108 3109 3108 3104 3100 3097 3097 3094 3090 3089 3087 3087 3088 3091 3095 3095 3096 3098 3101 3104 3108 3108 3109 3113 3119 3124 3129 3138 3142 3147 3154 3160 3162 3164 3165 3167 3169 3170 3170 3170 3170 3172 3172
3114 3111 3109 3108 3107 3108 3109 3103 3105 3091 3099 3095 3093 3089 3086 3085 3084 3086 3089 3088 3090 3093 3095 3095 3096 3097 3101 3103 3107 3111 3112 3118 3127 3131 3140 3149 3155 3159 3162 3163 3164 3166 3167 3168 3169 3169 3170 3171 3172
3112 3110 3107 3106 3106 3105 3102 3107 3102 3102 3100 3095 3095 3092 3084 3083 3085 3084 3084 3084 3086 3089 3092 3092 3093 3096 3098 3098 3105 3111 3114 3118 3123 3134 3144 3149 3154 3158 3159 3161 3163 3165 3165 3166 3167 3167 3169 3169 3168
3109 3107 3103 3101 3103 3099 3100 3100 3102 3103 3098 3097 3095 3092 3091 3088 3088 3087 3085 3087 3086 3087 3088 3089 3089 3094 3096 3102 3107 3115 3116 3123 3133 3140 3145 3150 3153 3155 3157 3159 3162 3162 3164 3164 3165 3166 3166 3166 3166
3106 3101 3098 3100 3099 3099 3099 3100 3100 3103 3106 3101 3094 3093 3093 3093 3091 3091 3091 3092 3091 3090 3091 3089 3090 3095 3101 3108 3112 3117 3123 3129 3136 3142 3145 3149 3151 3154 3156 3158 3159 3160 3161 3162 3163 3163 3163 3164 3162
3102 3101 3099 3098 3098 3098 3093 3098 3097 3098 3103 3101 3097 3094 3094 3093 3094 3096 3096 3097 3097 3096 3098 3100 3099 3100 3105 3111 3116 3122 3127 3132 3137 3140 3142 3146 3150 3152 3155 3156 3157 3159 3159 3160 3161 3161 3160 3158 3157
3100 3100 3096 3095 3096 3096 3094 3087 3093 3094 3097 3098 3095 3095 3095 3095 3097 3098 3099 3099 3100 3101 3103 3105 3106 3108 3111 3114 3119 3123 3128 3132 3136 3139 3142 3146 3148 3150 3152 3152 3155 3156 3156 3157 3158 3156 3156 3156 3155
3097 3096 3094 3093 3093 3095 3093 3093 3091 3094 3094 3094 3094 3094 3095 3095 3097 3099 3100 3102 3103 3104 3106 3108 3109 3111 3114 3118 3123 3126 3131 3134 3137 3140 3142 3145 3146 3147 3150 3151 3153 3155 3154 3153 3153 3152 3152 3151 3153
3096 3094 3093 3093 3094 3093 3092 3091 3092 3094 3095 3095 3093 3093 3094 3095 3095 3098 3100 3102 3104 3105 3108 3110 3110 3112 3115 3119 3123 3127 3130 3133 3135 3137 3140 3142 3143 3145 3147 3149 3149 3150 3149 3149 3150 3148 3147 3147 3145
3093 3093 3092 3094 3093 3090 3091 3087 3086 3088 3091 3092 3094 3093 3095 3097 3096 3096 3099 3103 3105 3106 3108 3111 3113 3114 3116 3119 3121 3124 3127 3130 3133 3135 3137 3139 3141 3142 3144 3145 3145 3145 3145 3144 3145 3144 3142 3141 3137
3091 3090 3091 3091 3090 3089 3086 3086 3080 3084 3086 3087 3088 3091 3093 3095 3097 3095 3096 3100 3104 3105 3108 3110 3112 3114 3116 3118 3121 3123 3126 3129 3131 3132 3133 3134 3137 3140 3140 3140 3140 3140 3140 3138 3136 3137 3136 3135 3134
3089 3089 3091 3090 3088 3086 3083 3083 3082 3082 3084 3085 3085 3088 3091 3093 3095 3097 3096 3098 3100 3103 3105 3108 3109 3112 3113 3116 3119 3123 3126 3127 3128 3128 3129 3130 3131 3133 3134 3135 3135 3134 3133 3132 3130 3129 3130 3128 3127
3086 3088 3087 3086 3085 3082 3080 3078 3075 3078 3080 3082 3084 3085 3086 3088 3092 3093 3095 3095 3097 3099 3102 3104 3106 3109 3111 3113 3118 3122 3125 3123 3122 3122 3121 3123 3125 3127 3129 3129 3128 3128 3126 3125 3123 3123 3123 3121 3121
3082 3085 3085 3090 3093 3083 3078 3075 3075 3073 3078 3080 3081 3083 3085 3084 3085 3088 3091 3092 3094 3096 3098 3101 3103 3106 3107 3109 3113 3116 3118 3117 3116 3115 3113 3113 3120 3121 3122 3123 3121 3120 3119 3117 3114 3116 3116 3115 3114
3079 3079 3082 3084 3092 3094 3085 3075 3073 3073 3076 3077 3079 3080 3081 3084 3082 3081 3083 3084 3088 3091 3093 3096 3099 3101 3103 3104 3106 3110 3112 3111 3112 3113 3112 3114 3116 3116 3115 3115 3115 3114 3112 3112 3110 3110 3109 3105 3105
3073 3078 3079 3077 3081 3080 3069 3069 3068 3072 3076 3076 3078 3077 3078 3079 3081 3081 3077 3082 3077 3082 3085 3090 3094 3094 3098 3100 3100 3103 3105 3105 3106 3108 3108 3110 3110 3110 3110 3109 3108 3106 3105 3105 3104 3104 3102 3099 3096
3071 3070 3073 3074 3072 3071 3070 3069 3068 3073 3070 3075 3076 3076 3076 3077 3077 3078 3079 3081 3083 3081 3078 3079 3086 3089 3090 3092 3095 3096 3097 3100 3101 3103 3103 3104 3105 3104 3104 3103 3101 3100 3100 3098 3097 3095 3093 3089 3088
3066 3065 3068 3067 3068 3069 3071 3068 3070 3071 3070 3072 3073 3074 3073 3075 3076 3076 3077 3078 3080 3082 3084 3082 3083 3083 3085 3086 3086 3089 3089 3093 3094 3097 3098 3099 3099 3099 3096 3096 3096 3094 3092 3090 3089 3086 3083 3078 3078
Wind_Speed
7 3 2 2 9 13 21 25 23 23 10 13 12 14 8 24 23 21 18 24 43 5 4 12 17 19 21 23 22 20 17 15 13 12 12 14 15 15 15 16 18 18 17 16 16 16 16 14 13
5 4 5 4 16 22 26 15 20 11 4 14 17 31 22 25 27 10 10 11 8 19 13 17 19 23 24 24 23 20 18 16 14 12 14 15 15 15 16 18 18 18 16 15 16 16 14 12 11
4 4 5 14 18 23 22 11 9 7 13 15 11 10 15 19 24 12 13 7 12 17 19 18 22 24 24 24 23 20 18 17 15 14 15 15 15 16 18 17 17 16 15 14 14 11 10 10 10
2 6 9 10 13 18 16 6 9 13 7 7 9 17 14 7 14 13 14 10 11 24 22 21 20 21 25 26 23 21 20 18 15 15 18 17 16 17 18 18 17 15 15 14 10 11 11 11 12
8 3 14 19 21 18 9 13 12 11 19 18 12 23 14 6 4 6 19 17 28 19 14 12 19 18 20 21 23 23 22 21 18 18 19 19 18 19 17 17 15 14 13 12 12 12 12 12 13
7 12 16 15 16 4 9 13 8 12 15 14 7 20 18 7 5 6 9 16 16 17 11 28 37 19 22 27 26 24 23 21 18 20 20 20 20 19 18 16 14 13 11 11 11 13 12 11 10
8 12 19 18 9 12 11 25 8 16 18 19 17 7 6 4 8 9 8 8 8 19 15 18 30 36 35 30 27 26 24 25 22 21 22 22 21 19 18 16 13 10 8 8 10 11 10 9 9
12 12 17 13 6 6 14 11 8 7 17 27 13 9 5 2 8 12 9 8 8 15 21 29 23 25 30 29 29 27 26 28 23 24 25 24 22 20 17 14 11 8 5 6 7 8 7 7 6
8 14 15 13 5 7 9 10 18 8 3 9 9 10 10 9 11 13 13 13 14 15 24 18 16 18 22 25 36 33 32 25 27 28 27 25 23 20 17 13 9 6 3 3 5 7 4 4 5
10 16 15 7 12 10 9 14 17 16 4 12 14 9 11 16 16 16 16 14 16 16 19 19 16 25 22 32 35 39 35 37 33 31 27 30 26 20 16 12 8 5 2 2 5 7 1 2 4
11 16 11 8 11 13 12 19 17 8 6 18 14 15 14 19 19 18 14 12 15 15 17 13 14 27 20 28 37 41 37 42 41 36 37 29 24 21 17 14 10 5 0 4 7 6 2 3 5
11 11 12 13 16 15 12 13 11 13 9 12 9 13 18 23 21 17 16 15 15 18 16 17 19 22 29 36 39 39 40 44 40 36 32 28 20 19 16 8 1 2 4 6 8 4 2 2 3
12 13 14 13 14 11 11 11 8 8 8 8 11 16 12 10 15 14 16 13 13 17 19 22 23 25 25 32 44 42 37 42 43 39 37 30 25 18 11 9 4 7 7 8 6 4 2 4 5
11 13 15 11 12 11 9 14 5 7 15 13 15 13 22 8 8 9 11 13 12 13 13 21 30 31 27 39 41 48 45 45 43 48 38 32 18 16 18 9 8 8 9 10 6 5 5 6 6
16 17 15 15 10 10 15 15 23 2 8 10 14 18 23 13 2 2 8 9 8 13 15 15 19 32 36 46 38 44 38 45 52 43 34 24 24 20 14 11 10 11 11 11 8 8 8 8 9
16 17 19 17 13 13 13 11 4 6 5 11 13 8 20 16 17 13 11 9 10 13 11 10 18 27 33 30 31 35 13 30 35 32 26 25 18 14 14 13 12 12 10 11 11 12 10 11 13
18 22 17 11 6 12 11 9 7 7 10 13 5 9 5 8 11 14 17 17 18 23 17 17 16 16 15 15 21 24 30 32 30 28 22 18 17 14 15 15 13 11 13 14 13 14 13 13 15
9 17 14 10 11 11 18 6 3 14 14 9 5 3 4 6 8 12 12 14 18 20 20 22 27 30 32 27 31 27 34 30 24 23 30 18 17 17 16 14 15 13 15 14 15 16 16 17 17
17 14 22 5 1 10 15 11 1 16 13 11 3 0 2 5 6 8 12 12 13 15 16 16 19 21 23 26 27 27 27 24 21 27 15 19 18 16 16 16 13 15 18 16 18 17 18 20 19
18 18 19 9 7 7 10 13 13 19 16 9 3 4 6 9 10 9 9 12 11 12 12 15 17 18 19 20 20 20 19 19 19 19 20 18 18 15 15 17 14 17 20 20 18 21 22 24 24
18 19 18 13 10 10 11 14 7 8 13 12 9 6 11 10 12 11 8 8 10 13 13 12 13 14 14 16 18 18 19 19 19 19 18 18 18 19 18 20 20 21 23 24 24 25 26 28 31
19 17 17 12 14 14 8 16 9 20 13 15 15 14 16 18 19 15 14 12 12 12 13 14 14 15 15 16 15 16 16 16 14 16 17 19 19 20 21 22 24 25 26 28 28 29 30 29 31
16 10 17 13 17 20 18 11 10 14 17 21 16 18 20 17 22 22 17 13 13 13 12 13 14 14 15 16 17 17 18 19 20 21 21 22 19 19 23 26 25 27 30 35 30 30 32 32 30
14 9 12 14 16 16 20 17 13 6 10 15 19 18 21 23 21 23 24 19 16 16 17 17 17 17 17 19 18 18 19 20 23 25 25 24 24 24 26 27 27 27 29 28 29 32 31 33 30
17 15 14 12 13 10 20 16 14 8 6 6 14 14 23 20 25 26 27 26 20 20 18 18 19 19 20 21 21 17 19 23 25 34 37 26 28 24 23 28 31 31 31 29 29 34 32 28 29
18 21 15 4 3 10 10 6 12 12 8 7 9 10 11 21 21 23 27 29 28 25 23 24 24 25 25 28 24 20 15 20 19 22 23 28 31 27 30 28 32 33 31 34 33 31 29 30 29
20 24 23 8 7 8 19 9 11 11 7 6 6 8 12 14 25 25 27 28 30 30 30 28 29 28 30 29 27 26 27 18 20 18 17 15 21 23 22 26 27 31 28 34 33 31 36 32 32
26 18 19 14 5 6 10 14 5 8 9 6 5 4 4 9 17 20 29 27 30 32 33 31 29 31 31 32 32 26 26 23 22 22 19 21 23 19 22 26 26 28 29 31 34 35 35 42 33
22 24 17 20 23 6 4 7 6 10 11 5 5 9 6 3 9 20 21 19 23 34 32 31 31 34 35 36 30 27 28 22 22 25 24 25 21 23 25 25 27 30 32 33 34 37 38 39 37
27 26 27 24 13 11 6 13 14 7 9 11 11 12 9 9 6 8 9 14 21 32 23 32 34 37 33 31 30 30 28 25 27 27 25 24 25 27 28 28 29 31 33 34 36 36 41 42 42
Wind_Direction
327 350 313 21 251 244 255 255 253 265 277 271 257 253 206 212 254 245 255 280 265 356 176 195 192 199 194 183 176 169 160 151 136 128 137 136 138 139 135 127 122 116 112 108 104 97 90 88 86
348 354 301 265 250 271 262 290 274 268 319 275 249 262 235 248 206 249 275 282 252 256 254 208 202 195 190 180 175 167 162 152 140 141 144 143 142 141 133 129 121 116 114 109 103 99 90 78 74
23 28 278 246 256 258 284 306 311 334 291 302 311 276 235 219 242 267 289 250 211 204 226 211 200 190 183 178 172 167 161 154 150 153 148 147 146 139 134 127 122 118 110 102 99 88 68 63 71
35 311 282 255 268 280 301 280 274 283 294 220 260 252 228 243 269 274 249 263 235 217 199 204 195 201 182 176 174 169 165 160 159 160 154 151 148 144 139 132 125 114 106 98 83 70 62 72 81
355 334 265 262 275 283 285 287 283 297 288 269 232 272 249 309 300 254 245 237 272 277 241 241 200 193 195 193 180 174 171 168 167 163 160 152 150 147 141 132 123 114 105 88 77 66 71 78 82
263 265 278 285 289 304 259 258 273 292 297 304 248 273 288 229 275 230 237 218 218 240 263 226 232 198 213 182 183 179 175 172 169 164 161 152 151 151 143 138 128 120 108 90 75 65 74 86 87
285 292 280 299 301 341 325 275 258 313 271 276 266 351 347 353 264 276 245 225 261 255 230 213 197 201 190 185 184 181 180 174 168 167 159 155 158 155 149 143 133 124 105 83 66 57 63 83 84
278 274 279 283 302 302 307 274 278 271 323 306 341 288 319 5 253 254 245 250 231 249 224 191 197 185 188 183 187 184 176 177 163 167 165 159 161 156 152 147 140 128 106 74 52 41 53 85 93
263 270 274 296 295 350 344 304 283 231 266 275 293 307 298 270 268 257 248 238 244 230 226 271 215 232 173 199 192 186 178 169 171 170 165 163 165 164 161 153 149 137 111 51 29 19 39 91 92
268 267 306 308 297 316 309 324 311 316 274 279 287 274 301 280 265 259 252 250 248 243 233 240 231 210 208 202 204 192 187 172 170 173 177 172 172 161 167 161 163 165 144 16 354 348 6 81 105
260 269 307 288 318 302 305 292 295 321 297 283 308 318 313 295 274 262 249 243 246 252 242 249 238 215 239 226 199 201 184 177 177 182 185 172 169 170 169 182 183 184 289 324 328 332 355 29 36
273 264 282 287 298 303 302 323 312 312 311 312 304 318 299 312 270 263 254 251 240 242 240 252 247 239 229 212 208 197 187 176 177 181 179 177 167 181 192 189 211 311 275 303 315 302 5 9 326
268 274 282 287 289 297 292 313 303 271 350 350 318 318 312 310 285 266 263 245 238 238 242 250 249 222 237 220 213 197 195 185 182 175 181 176 170 180 192 208 236 259 272 292 308 300 284 267 307
281 280 280 272 271 282 286 275 257 66 332 331 324 339 339 300 255 226 251 257 247 222 221 232 234 217 250 212 213 188 191 181 175 188 178 169 168 177 201 226 243 265 282 289 281 276 269 282 290
268 278 276 262 284 263 252 279 288 293 338 336 329 2 10 232 305 196 249 249 200 194 208 214 234 233 244 205 208 193 202 188 188 176 164 167 175 194 206 225 248 261 274 280 287 277 270 282 303
268 269 269 263 268 262 254 275 170 214 177 265 326 357 58 92 97 79 100 109 119 137 133 199 227 226 215 210 209 194 220 187 166 157 157 181 194 194 217 230 240 261 272 267 266 268 281 290 291
259 259 248 267 317 239 259 214 187 189 205 231 319 333 126 109 112 98 98 98 96 98 104 114 154 187 185 177 185 153 152 145 152 164 189 202 205 208 223 237 246 258 258 258 262 270 277 285 293
271 267 291 265 280 238 227 236 351 162 211 186 191 325 92 116 122 120 113 112 113 111 107 105 111 128 129 139 141 157 159 163 176 200 201 200 209 215 224 225 250 253 257 259 265 268 273 284 298
270 284 267 264 12 210 268 214 287 165 215 184 210 187 156 148 164 133 137 137 134 134 131 131 127 129 134 142 154 155 166 179 189 196 208 204 214 222 231 247 250 253 260 261 260 274 280 283 291
265 266 276 266 235 247 277 278 205 189 205 235 247 232 190 200 180 177 162 153 147 142 141 147 149 142 145 160 172 179 186 194 199 201 208 208 223 228 238 248 253 256 263 269 275 274 278 283 283
251 251 259 307 271 276 276 274 236 213 190 205 231 224 208 215 233 208 194 181 173 167 165 165 153 154 164 171 184 189 194 200 205 213 221 226 230 235 246 255 264 264 270 276 275 276 278 279 284
240 241 260 260 276 269 276 278 229 185 199 203 209 218 203 208 236 243 216 200 199 184 178 181 184 178 176 184 193 198 212 219 228 229 236 236 237 246 257 263 265 271 275 279 277 275 275 277 286
237 258 263 278 262 277 268 248 279 204 212 205 221 214 214 214 216 235 238 217 202 207 202 203 202 206 197 203 211 216 217 226 228 230 238 245 249 254 263 269 277 280 281 283 276 275 275 279 274
235 232 241 258 256 265 264 252 242 211 257 224 209 220 218 214 214 219 241 247 216 210 216 214 217 221 222 223 223 236 243 250 254 245 238 245 250 256 262 271 277 277 284 285 285 274 281 269 276
228 239 244 240 240 243 251 252 250 198 160 211 200 221 229 235 213 212 219 237 242 224 218 223 226 232 236 240 238 240 252 262 268 275 261 245 253 260 264 273 282 278 285 281 274 275 277 273 280
222 225 233 179 311 304 311 250 244 222 179 193 213 225 232 230 237 227 213 225 238 246 235 231 230 235 241 245 245 245 297 274 269 296 271 266 252 258 272 278 277 285 284 285 286 279 269 268 288
222 221 237 147 214 265 244 244 235 196 210 214 208 222 237 237 235 234 225 216 226 238 250 243 239 241 244 250 251 261 272 283 270 272 267 256 261 271 281 281 280 284 277 274 282 273 280 267 288
233 235 240 208 202 222 258 258 305 158 227 202 231 201 224 226 222 243 236 227 224 236 246 254 259 257 254 253 254 266 262 275 266 270 265 260 262 262 275 282 283 286 282 277 279 279 286 268 282
219 233 233 254 240 246 267 281 276 205 156 233 201 230 220 229 214 215 215 221 239 249 243 247 256 256 265 264 254 247 254 259 260 263 264 265 262 268 280 282 286 285 284 282 280 283 292 279 282
233 229 228 246 225 254 242 257 173 262 278 237 221 230 221 214 223 249 234 227 227 222 224 244 249 253 258 257 256 252 253 258 258 256 261 268 264 272 282 284 285 283 283 282 281 268 278 277 295